CZ-6A DEB, 61274

Orbit data source: Space-Track

CZ-6A DEB, 61274 is space debris in LEO originally from a launch on Tue, 06 Aug 2024 UTC launched from the Taiyaun Space Center, China (TSC). Debris objects in space refer to the collection of defunct objects orbiting the Earth. Examples of debris include non-operational satellites, rocket bodies, and fragments generated from explosions, collisions, or faulty payload assembly.

Loading next visibility...
Identifier
61274, 2024-140SK
Orbit
LEO
Country
Flag of CNCN / PRC
Related business
Manufacturer
SAST
Mission
Spacecraft
Bus & Motor
Unknown
Mass
Unknown
Launch date (UTC)
2024-08-06 (2 years ago)
Launch vehicle
Unknown
Launch site
Taiyaun Space Center, China (TSC)
Object type
Payload
Rocket body
Debris
Shape & HBR
Unknown shape, 1.1 m
Radar Cross Section
Small (<0.1 m²)

Expand to show TLE details & history
Last TLE update: 18 hours ago

TLE from 18 hours ago
0 CZ-6A DEB
1 61274U 24140SK  26129.84439745  .00001983  00000-0  10489-2 0  9990
2 61274  88.8460 269.3371 0101888 357.7902   2.2818 14.10792359 87430
Epoch: 2026-05-09T20:15Z
TLE epoch observation values (Epoch: 2026-05-09T20:15:55.939Z)
Latitude
-0.00004°
Longitude
97.69802°
Altitude
786.031 km
Speed
7.499 km/s
True Right ascension
17h 57m 20s
True Declination
0° 00' 00"
Sunlit
Object was in full shadow at epoch
Visualization orbit readout
Latitude
Unknown
Longitude
Unknown
Altitude
Unknown
Speed
Unknown
Apparent Right ascension
Unknown
Apparent Declination
Unknown
Sunlit
N/A
Visualization observer readout
Local Sidereal Time
22:11:23
Azimuth
Unknown
Elevation
Unknown
Doppler factor
Unknown
Orbital elements
Apogee altitude
927.309 km
Perigee altitude
779.943 km
Semi-major axis
7,231.763 km
Eccentricity
0.01019
Inclination
88.846°
RAAN
269.3371°
Arg. of periapsis
357.7902°
True anomaly
2.32888°
Mean anomaly
2.2818°
Eccentric anomaly
2.30528°
Mean motion
3.5292 °/min
Orbital period
102.01 mins
BSTAR
0.0010489
Loading maneuver chart data...
Computing Atmospheric mass density...
Loading historical data...
Loading historical data...
Loading historical data...
Loading historical data...
Loading historical data...
Loading historical data...
Loading historical data...

Documentation

Showing up to 5 results
|